GW3577 Weather Reports


Display with metric or nautical units.
time (UTC)temp
F
wind
direction
speed
MPH
gust
MPH
rain 1hr
in
rain 24hr
in
rain mn
in
humidity
%
barometer
mb
20260904015810 78 330 1.0 4.0 0.00 0.00 0.00 82 1017.2
20260904015307 78 330 0.0 0.0 0.00 0.00 0.00 82 1017.2
20260904014805 79 330 0.0 0.0 0.00 0.00 0.00 80 1017.2
20260904014300 79 330 0.0 0.0 0.00 0.00 0.00 78 1017.2
20260904013756 79 330 0.0 0.0 0.00 0.00 0.00 78 1017.2
20260904013252 78 330 0.0 0.0 0.00 0.00 0.00 80 1017.2
20260904012748 78 330 0.0 0.0 0.00 0.00 0.00 82 1017.2
20260904012247 79 330 0.0 0.0 0.00 0.00 0.00 79 1017.2
20260904011746 79 330 0.0 1.0 0.00 0.00 0.00 78 1017.2
20260904011241 79 330 0.0 0.0 0.00 0.00 0.00 78 1016.8
20260904010736 79 330 1.0 4.0 0.00 0.00 0.00 79 1016.8
20260904010233 79 330 2.0 4.0 0.00 0.00 0.00 79 1016.8
20260904005728 80 330 1.0 4.0 0.00 0.00 0.00 78 1017.2
20260904005223 80 330 0.0 3.0 0.00 0.00 0.00 76 1017.2
20260904004718 80 330 0.0 3.0 0.00 0.00 0.00 76 1017.2
20260904004214 81 330 1.0 4.0 0.00 0.00 0.00 76 1017.2
20260904003708 81 330 0.0 0.0 0.00 0.00 0.00 75 1017.2
20260904003205 82 330 0.0 0.0 0.00 0.00 0.00 73 1016.8
20260904002700 83 330 0.0 0.0 0.00 0.00 0.00 70 1016.8
20260904002155 83 330 0.0 0.0 0.00 0.00 0.00 71 1016.8
20260904001645 82 330 0.0 0.0 0.00 0.00 0.00 73 1016.8
20260904001144 82 330 0.0 0.0 0.00 0.00 0.00 73 1016.5
20260904000639 84 330 0.0 0.0 0.00 0.00 0.00 66 1016.5
20260904000134 85 330 2.0 5.0 0.00 0.00 0.00 65 1016.5
20260903235634 85 338 4.0 6.0 0.00 0.00 0.00 64 1016.5
20260903235131 85 325 3.0 5.0 0.00 0.00 0.00 65 1016.1
20260903234624 85 316 5.0 6.0 0.00 0.00 0.00 66 1016.1
20260903234121 86 331 4.0 5.0 0.00 0.00 0.00 65 1015.8
20260903233617 87 331 2.0 4.0 0.00 0.00 0.00 62 1016.1
20260903233112 87 331 3.0 5.0 0.00 0.00 0.00 60 1015.8
20260903232606 88 324 3.0 5.0 0.00 0.00 0.00 58 1015.8
20260903232102 89 303 3.0 4.0 0.00 0.00 0.00 57 1015.8
20260903231551 90 302 2.0 4.0 0.00 0.00 0.00 55 1015.8
20260903231045 91 302 1.0 3.0 0.00 0.00 0.00 52 1015.8
20260903230542 93 255 0.0 0.0 0.00 0.00 0.00 51 1015.8
20260903230040 94 248 0.0 0.0 0.00 0.00 0.00 48 1015.4
20260903225538 94 248 0.0 0.0 0.00 0.00 0.00 45 1015.4
20260903225034 95 248 0.0 0.0 0.00 0.00 0.00 46 1015.4
20260903224530 95 248 0.0 0.0 0.00 0.00 0.00 44 1015.4
20260903224026 95 248 3.0 4.0 0.00 0.00 0.00 40 1015.0
20260903223525 95 236 3.0 4.0 0.00 0.00 0.00 40 1015.0
20260903223024 95 265 5.0 6.0 0.00 0.00 0.00 39 1015.0
20260903222520 95 251 5.0 5.0 0.00 0.00 0.00 39 1015.0
20260903222018 96 252 6.0 8.0 0.00 0.00 0.00 39 1015.0
20260903221514 96 256 8.0 10.0 0.00 0.00 0.00 39 1015.0
20260903221011 96 225 6.0 10.0 0.00 0.00 0.00 41 1015.0
20260903220510 96 243 5.0 7.0 0.00 0.00 0.00 42 1015.0
20260903220010 96 262 6.0 10.0 0.00 0.00 0.00 42 1015.0
20260903215505 96 244 5.0 6.0 0.00 0.00 0.00 45 1015.0
20260903215003 97 243 7.0 11.0 0.00 0.00 0.00 46 1015.4
20260903214459 97 270 4.0 5.0 0.00 0.00 0.00 46 1015.0
20260903213958 97 247 6.0 7.0 0.00 0.00 0.00 45 1015.4
20260903213454 97 169 2.0 4.0 0.00 0.00 0.00 45 1015.4
20260903212950 97 102 3.0 6.0 0.00 0.00 0.00 44 1015.4
20260903212445 98 128 0.0 1.0 0.00 0.00 0.00 44 1015.4
20260903211940 98 125 3.0 5.0 0.00 0.00 0.00 44 1015.4
20260903211435 98 125 3.0 4.0 0.00 0.00 0.00 44 1015.4
20260903210932 98 225 3.0 4.0 0.00 0.00 0.00 44 1015.8
20260903210431 97 132 0.0 3.0 0.00 0.00 0.00 44 1015.8
20260903205927 97 168 4.0 6.0 0.00 0.00 0.00 44 1015.4
20260903205426 97 127 7.0 9.0 0.00 0.00 0.00 44 1015.8
20260903204920 98 162 4.0 5.0 0.00 0.00 0.00 44 1015.8
20260903204417 98 125 4.0 6.0 0.00 0.00 0.00 43 1015.8
20260903203913 98 136 4.0 5.0 0.00 0.00 0.00 44 1015.8
20260903203408 98 121 5.0 6.0 0.00 0.00 0.00 44 1015.8
20260903202907 97 143 4.0 6.0 0.00 0.00 0.00 44 1015.8
20260903202404 98 149 6.0 8.0 0.00 0.00 0.00 44 1015.8
20260903201903 98 147 1.0 3.0 0.00 0.00 0.00 44 1015.8
20260903201359 98 107 3.0 7.0 0.00 0.00 0.00 45 1015.8
20260903200858 98 137 4.0 9.0 0.00 0.00 0.00 45 1015.8
20260903200353 97 132 5.0 7.0 0.00 0.00 0.00 45 1015.8
20260903195848 98 171 4.0 8.0 0.00 0.00 0.00 44 1015.8
20260903195344 98 180 2.0 4.0 0.00 0.00 0.00 46 1016.1
20260903194838 98 135 5.0 7.0 0.00 0.00 0.00 47 1015.8
20260903194334 97 198 0.0 1.0 0.00 0.00 0.00 48 1016.1
20260903193829 97 156 3.0 5.0 0.00 0.00 0.00 48 1016.1
20260903193326 97 187 6.0 8.0 0.00 0.00 0.00 47 1016.1
20260903192821 98 84 2.0 5.0 0.00 0.00 0.00 47 1016.5
20260903192316 97 131 4.0 7.0 0.00 0.00 0.00 48 1016.5
20260903191813 97 112 5.0 8.0 0.00 0.00 0.00 48 1016.5
20260903191308 97 165 3.0 5.0 0.00 0.00 0.00 48 1016.8
20260903190807 98 155 4.0 5.0 0.00 0.00 0.00 48 1016.8
20260903190302 97 89 6.0 9.0 0.00 0.00 0.00 48 1016.8
20260903185757 96 151 3.0 5.0 0.00 0.00 0.00 48 1016.8
20260903185256 98 63 2.0 4.0 0.00 0.00 0.00 44 1016.8
20260903184753 98 190 4.0 7.0 0.00 0.00 0.00 46 1016.8
20260903184249 98 182 1.0 4.0 0.00 0.00 0.00 46 1016.8
20260903183744 100 182 3.0 7.0 0.00 0.00 0.00 44 1016.8
20260903183238 99 98 2.0 4.0 0.00 0.00 0.00 43 1016.8
20260903182737 99 123 5.0 7.0 0.00 0.00 0.00 43 1016.8
20260903182232 99 101 5.0 7.0 0.00 0.00 0.00 44 1016.8
20260903181731 98 138 5.0 7.0 0.00 0.00 0.00 46 1016.8
20260903181226 97 150 4.0 7.0 0.00 0.00 0.00 47 1017.2
20260903180722 97 104 6.0 10.0 0.00 0.00 0.00 48 1017.2
20260903180221 97 97 6.0 11.0 0.00 0.00 0.00 48 1017.2
20260903175721 96 121 3.0 5.0 0.00 0.00 0.00 49 1017.5
20260903175215 96 137 7.0 12.0 0.00 0.00 0.00 48 1017.5
20260903174714 98 129 7.0 8.0 0.00 0.00 0.00 46 1017.5
20260903174209 97 125 3.0 5.0 0.00 0.00 0.00 47 1017.5
20260903173709 95 110 2.0 4.0 0.00 0.00 0.00 48 1017.8
20260903173206 95 128 2.0 4.0 0.00 0.00 0.00 49 1017.8
20260903172700 96 105 3.0 4.0 0.00 0.00 0.00 47 1017.5
20260903172155 98 113 8.0 10.0 0.00 0.00 0.00 46 1017.2
20260903171650 98 129 2.0 5.0 0.00 0.00 0.00 46 1017.2
20260903171147 98 142 2.0 5.0 0.00 0.00 0.00 46 1017.2
20260903170645 98 148 4.0 7.0 0.00 0.00 0.00 47 1017.5
20260903170141 96 115 5.0 7.0 0.00 0.00 0.00 48 1017.5
20260903165638 97 164 5.0 10.0 0.00 0.00 0.00 48 1017.2
20260903165133 97 225 3.0 5.0 0.00 0.00 0.00 48 1017.2
20260903164627 99 71 2.0 5.0 0.00 0.00 0.00 46 1017.5
20260903164124 99 121 4.0 5.0 0.00 0.00 0.00 47 1017.5
20260903163619 98 213 1.0 3.0 0.00 0.00 0.00 48 1017.5
20260903163115 98 13 1.0 4.0 0.00 0.00 0.00 47 1017.5
20260903162611 97 169 2.0 3.0 0.00 0.00 0.00 49 1017.8
20260903162107 97 243 4.0 7.0 0.00 0.00 0.00 49 1017.8
20260903161602 97 176 3.0 7.0 0.00 0.00 0.00 49 1017.8
20260903161057 96 141 0.0 0.0 0.00 0.00 0.00 51 1017.8
20260903160556 96 176 4.0 7.0 0.00 0.00 0.00 50 1018.2
20260903160051 97 173 3.0 6.0 0.00 0.00 0.00 50 1018.2
20260903155550 96 118 0.0 0.0 0.00 0.00 0.00 51 1018.2
20260903155046 96 216 2.0 4.0 0.00 0.00 0.00 53 1018.2
20260903154542 97 131 6.0 7.0 0.00 0.00 0.00 50 1018.2
20260903154038 96 295 0.0 0.0 0.00 0.00 0.00 48 1018.2
20260903153533 96 237 0.0 0.0 0.00 0.00 0.00 51 1018.2
20260903153029 95 226 0.0 0.0 0.00 0.00 0.00 53 1018.2
20260903152525 94 144 1.0 2.0 0.00 0.00 0.00 54 1018.5
20260903152021 94 133 0.0 2.0 0.00 0.00 0.00 54 1018.5
20260903151519 93 133 3.0 4.0 0.00 0.00 0.00 56 1018.5
20260903151014 93 99 1.0 3.0 0.00 0.00 0.00 56 1018.5
20260903150509 93 99 4.0 6.0 0.00 0.00 0.00 56 1018.5
20260903150005 92 153 4.0 7.0 0.00 0.00 0.00 57 1018.5
20260903145459 92 126 2.0 4.0 0.00 0.00 0.00 57 1018.5
20260903144954 93 139 3.0 6.0 0.00 0.00 0.00 54 1018.5
20260903144453 92 213 0.0 0.0 0.00 0.00 0.00 55 1018.5
20260903143949 92 213 2.0 3.0 0.00 0.00 0.00 55 1018.5
20260903143446 92 308 0.0 0.0 0.00 0.00 0.00 55 1018.5
20260903142941 93 308 1.0 2.0 0.00 0.00 0.00 56 1018.5
20260903142436 92 308 0.0 0.0 0.00 0.00 0.00 57 1018.5
20260903141932 91 308 0.0 0.0 0.00 0.00 0.00 58 1018.5
20260903141428 90 308 0.0 0.0 0.00 0.00 0.00 59 1018.5
20260903140924 89 308 0.0 0.0 0.00 0.00 0.00 60 1018.5
20260903140419 89 308 0.0 0.0 0.00 0.00 0.00 63 1018.5
20260903135914 88 308 1.0 2.0 0.00 0.00 0.00 63 1018.5
20260903135410 88 308 0.0 0.0 0.00 0.00 0.00 64 1018.5
20260903134908 87 308 0.0 0.0 0.00 0.00 0.00 65 1018.5
20260903134357 86 308 0.0 0.0 0.00 0.00 0.00 67 1018.5
20260903133855 85 308 0.0 0.0 0.00 0.00 0.00 69 1018.8
20260903133351 84 308 0.0 0.0 0.00 0.00 0.00 72 1018.8
20260903132846 83 308 0.0 0.0 0.00 0.00 0.00 73 1018.8
20260903132342 82 308 0.0 0.0 0.00 0.00 0.00 77 1018.8
20260903131842 81 308 0.0 0.0 0.00 0.00 0.00 78 1019.2
20260903131341 81 308 0.0 0.0 0.00 0.00 0.00 78 1019.2
20260903130840 82 308 0.0 0.0 0.00 0.00 0.00 79 1019.2
20260903130335 81 308 0.0 0.0 0.00 0.00 0.00 80 1019.2
20260903125834 81 308 0.0 0.0 0.00 0.00 0.00 81 1019.2
20260903125330 80 308 0.0 0.0 0.00 0.00 0.00 81 1019.2
20260903124828 80 308 0.0 0.0 0.00 0.00 0.00 82 1019.2
20260903124324 79 308 0.0 0.0 0.00 0.00 0.00 83 1019.2
20260903123822 79 308 0.0 0.0 0.00 0.00 0.00 84 1019.2
20260903123317 78 308 0.0 0.0 0.00 0.00 0.00 86 1019.5
20260903122815 77 308 0.0 0.0 0.00 0.00 0.00 88 1019.2
20260903122311 77 308 0.0 0.0 0.00 0.00 0.00 89 1019.5
20260903121809 76 308 0.0 0.0 0.00 0.00 0.00 92 1019.5
20260903121305 75 308 0.0 0.0 0.00 0.00 0.00 92 1019.5
20260903120800 75 308 0.0 0.0 0.00 0.00 0.00 93 1019.5
20260903120254 73 308 0.0 0.0 0.00 0.00 0.00 95 1019.5
20260903115752 72 308 0.0 0.0 0.00 0.00 0.00 97 1019.5
20260903115248 72 308 0.0 0.0 0.00 0.00 0.00 97 1019.5
20260903114742 71 308 0.0 0.0 0.00 0.00 0.00 97 1020.0
20260903114238 71 308 0.0 0.0 0.00 0.00 0.00 98 1019.5
20260903113733 71 308 0.0 0.0 0.00 0.00 0.00 99 1019.5
20260903113229 70 308 0.0 0.0 0.00 0.00 0.00 99 1019.5
20260903112725 69 308 0.0 0.0 0.00 0.00 0.00 99 1019.5
20260903112220 69 308 0.0 0.0 0.00 0.00 0.00 99 1019.2
20260903111719 69 308 0.0 0.0 0.00 0.00 0.00 99 1019.2
20260903111214 69 308 0.0 0.0 0.00 0.00 0.00 99 1019.2
20260903110710 69 308 0.0 0.0 0.00 0.00 0.00 99 1019.2
20260903110205 69 308 0.0 2.0 0.00 0.00 0.00 99 1018.8
20260903105700 69 308 0.0 0.0 0.00 0.00 0.00 99 1019.2
20260903105155 69 308 0.0 0.0 0.00 0.00 0.00 99 1018.8
20260903104654 69 308 0.0 0.0 0.00 0.00 0.00 99 1018.8
20260903104150 69 308 0.0 0.0 0.00 0.00 0.00 99 1018.8
20260903103646 69 308 0.0 0.0 0.00 0.00 0.00 99 1018.8
20260903103142 69 308 0.0 0.0 0.00 0.00 0.00 99 1018.8
20260903102637 69 308 0.0 0.0 0.00 0.00 0.00 99 1018.8
20260903102136 69 308 0.0 0.0 0.00 0.00 0.00 99 1018.8
20260903101630 69 308 0.0 0.0 0.00 0.00 0.00 99 1018.8
20260903101125 69 308 0.0 0.0 0.00 0.00 0.00 99 1018.8
20260903100620 69 308 0.0 0.0 0.00 0.00 0.00 98 1018.8
20260903100119 70 308 0.0 0.0 0.00 0.00 0.00 98 1018.8
20260903095617 70 308 0.0 0.0 0.00 0.00 0.00 98 1018.8
20260903095117 70 308 0.0 0.0 0.00 0.00 0.00 99 1018.8
20260903094612 70 308 0.0 0.0 0.00 0.00 0.00 99 1018.8
20260903094107 70 308 0.0 0.0 0.00 0.00 0.00 99 1018.8
20260903093603 70 308 0.0 0.0 0.00 0.00 0.00 99 1018.8
20260903093058 70 308 0.0 0.0 0.00 0.00 0.00 99 1018.8
20260903092557 70 308 0.0 0.0 0.00 0.00 0.00 99 1018.8
20260903092052 70 308 0.0 0.0 0.00 0.00 0.00 99 1018.8
20260903091550 70 308 0.0 0.0 0.00 0.00 0.00 99 1018.8
20260903091045 70 308 0.0 0.0 0.00 0.00 0.00 99 1018.8
20260903090541 70 308 0.0 0.0 0.00 0.00 0.00 99 1018.8
20260903090039 69 308 0.0 0.0 0.00 0.00 0.00 99 1018.8
20260903085538 69 308 0.0 0.0 0.00 0.00 0.00 99 1018.8
20260903085034 69 308 0.0 0.0 0.00 0.00 0.00 99 1018.8
20260903084532 69 308 0.0 0.0 0.00 0.00 0.00 99 1018.5
20260903084027 69 308 0.0 0.0 0.00 0.00 0.00 99 1018.8
20260903083523 69 308 0.0 0.0 0.00 0.00 0.00 99 1018.5
20260903083022 70 308 0.0 0.0 0.00 0.00 0.00 98 1018.5
20260903082516 70 308 0.0 0.0 0.00 0.00 0.00 98 1018.5
20260903082012 70 308 0.0 0.0 0.00 0.00 0.00 98 1018.5
20260903081507 70 308 0.0 0.0 0.00 0.00 0.00 98 1018.5
20260903081004 70 308 0.0 0.0 0.00 0.00 0.00 98 1018.5
20260903080459 70 308 0.0 0.0 0.00 0.00 0.00 98 1018.5
20260903075955 70 308 0.0 0.0 0.00 0.00 0.00 98 1018.5
20260903075450 70 308 0.0 0.0 0.00 0.00 0.00 98 1018.5
20260903074946 70 308 0.0 0.0 0.00 0.00 0.00 98 1018.5
20260903074444 70 308 0.0 0.0 0.00 0.00 0.00 97 1018.8
20260903073940 71 308 0.0 0.0 0.00 0.00 0.00 97 1018.8
20260903073435 71 308 0.0 0.0 0.00 0.00 0.00 97 1018.8
20260903072931 71 308 0.0 0.0 0.00 0.00 0.00 98 1018.8
20260903072427 71 308 0.0 0.0 0.00 0.00 0.00 98 1018.8
20260903071923 70 308 0.0 0.0 0.00 0.00 0.00 98 1018.5
20260903071419 70 308 0.0 0.0 0.00 0.00 0.00 98 1018.8
20260903070914 70 308 0.0 0.0 0.00 0.00 0.00 97 1018.8
20260903070408 71 308 0.0 0.0 0.00 0.00 0.00 97 1018.8
20260903065903 71 308 0.0 0.0 0.00 0.00 0.00 97 1018.5
20260903065403 71 308 0.0 0.0 0.00 0.00 0.00 97 1018.8
20260903064902 70 308 0.0 0.0 0.00 0.00 0.00 97 1018.8
20260903064358 71 308 0.0 0.0 0.00 0.00 0.00 97 1018.8
20260903063853 71 308 0.0 0.0 0.00 0.00 0.00 97 1018.8
20260903063343 71 308 0.0 0.0 0.00 0.00 0.00 97 1018.8
20260903062839 71 308 0.0 0.0 0.00 0.00 0.00 97 1018.8
20260903062338 71 308 0.0 0.0 0.00 0.00 0.00 97 1018.5
20260903061834 71 308 0.0 0.0 0.00 0.00 0.00 97 1018.5
20260903061328 71 308 0.0 0.0 0.00 0.00 0.00 97 1018.5
20260903060824 71 308 0.0 0.0 0.00 0.00 0.00 97 1018.8
20260903060323 71 308 0.0 0.0 0.00 0.00 0.00 97 1018.8
20260903055821 71 308 0.0 0.0 0.00 0.00 0.00 97 1018.8
20260903055319 71 308 0.0 0.0 0.00 0.00 0.00 96 1018.8
20260903054815 71 308 0.0 0.0 0.00 0.00 0.00 96 1018.8
20260903054314 71 308 0.0 0.0 0.00 0.00 0.00 96 1018.8
20260903053811 71 308 0.0 0.0 0.00 0.00 0.00 96 1019.2
20260903053306 71 308 0.0 0.0 0.00 0.00 0.00 96 1018.8
20260903052802 71 308 0.0 0.0 0.00 0.00 0.00 96 1018.8
20260903052257 71 308 0.0 0.0 0.00 0.00 0.00 96 1018.8
20260903051752 72 308 0.0 0.0 0.00 0.00 0.00 95 1018.8
20260903051248 72 308 0.0 0.0 0.00 0.00 0.00 95 1018.8
20260903050743 72 308 0.0 0.0 0.00 0.00 0.00 95 1018.8
20260903050242 72 308 0.0 0.0 0.00 0.00 0.00 95 1018.8
20260903045737 72 308 0.0 0.0 0.00 0.00 0.00 95 1018.8
20260903045233 72 308 0.0 0.0 0.00 0.00 0.00 95 1018.8
20260903044729 72 308 0.0 0.0 0.00 0.00 0.00 94 1018.8
20260903044224 72 308 0.0 0.0 0.00 0.00 0.00 94 1018.8
20260903043722 73 308 0.0 0.0 0.00 0.00 0.00 94 1018.8
20260903043221 73 308 0.0 0.0 0.00 0.00 0.00 94 1018.8
20260903042720 73 308 0.0 0.0 0.00 0.00 0.00 94 1018.8
20260903042215 73 308 0.0 0.0 0.00 0.00 0.00 93 1018.8
20260903041711 73 308 0.0 0.0 0.00 0.00 0.00 93 1018.8
20260903041207 73 308 0.0 0.0 0.00 0.00 0.00 93 1018.8
20260903040706 73 308 0.0 0.0 0.00 0.00 0.00 93 1018.8
20260903040202 73 308 0.0 0.0 0.00 0.00 0.00 93 1018.8
20260903035657 73 308 0.0 2.0 0.00 0.00 0.00 93 1019.2
20260903035148 73 308 0.0 0.0 0.00 0.00 0.00 92 1018.8
20260903034647 73 308 0.0 0.0 0.00 0.00 0.00 92 1019.2
20260903034142 74 308 0.0 0.0 0.00 0.00 0.00 91 1019.2
20260903033638 74 308 0.0 0.0 0.00 0.00 0.00 89 1019.5
20260903033138 74 308 0.0 0.0 0.00 0.00 0.00 89 1019.2
20260903032633 74 308 0.0 0.0 0.00 0.00 0.00 91 1019.2
20260903032128 74 308 2.0 4.0 0.00 0.00 0.00 91 1019.5
20260903031624 74 308 0.0 0.0 0.00 0.00 0.00 90 1019.5
20260903031119 74 308 0.0 0.0 0.00 0.00 0.00 90 1019.5
20260903030614 74 308 2.0 3.0 0.00 0.00 0.00 90 1019.5
20260903030109 74 308 2.0 4.0 0.00 0.00 0.00 90 1020.0
20260903025605 74 308 0.0 0.0 0.00 0.00 0.00 90 1020.0
20260903025100 75 308 2.0 3.0 0.00 0.00 0.00 88 1020.0
20260903024555 75 340 3.0 4.0 0.00 0.00 0.00 88 1020.0
20260903024049 75 340 2.0 3.0 0.00 0.00 0.00 88 1020.0
20260903023545 75 340 1.0 3.0 0.00 0.00 0.00 89 1020.0
20260903023040 75 340 0.0 0.0 0.00 0.00 0.00 89 1020.0
20260903022539 75 340 1.0 3.0 0.00 0.00 0.00 89 1020.0
20260903022039 76 340 0.0 0.0 0.00 0.00 0.00 87 1020.0
20260903021533 77 340 0.0 0.0 0.00 0.00 0.00 86 1020.0
20260903021028 77 340 0.0 0.0 0.00 0.00 0.00 86 1020.0
20260903020524 77 340 0.0 0.0 0.00 0.00 0.00 85 1020.0
20260903020024 77 340 0.0 0.0 0.00 0.00 0.00 86 1020.0